Location: Unspecified
(0.0000°N, 0.0000°E)
Time: 21:04:16
(UTC+00:00)

KKS-1 - Pass Details

Date: 17 December 2017
Orbit: 637 x 651 km, 98.3° (Epoch: 16 January)

Event Time Altitude Azimuth Distance (km) Brightness Sun altitude
Rises 04:54:39 0° 166° (SSE) 2,969 ? -14.1°
Reaches altitude 10° 04:56:52 10° 165° (SSE) 2,056 ? -13.6°
Maximum altitude 05:01:21 81° 79° (E) 660 ? -12.5°
Drops below altitude 10° 05:05:48 10° 351° (N) 2,043 ? -11.5°
Sets 05:08:00 0° 350° (N) 2,948 ? -11.0°
